Location: Township of Marena
(38.1747°N, 99.6798°W)
Time: 14:55:36
(UTC+00:00)

Lacrosse 4 Rocket - Pass Details

Date: 26 October 2020
Orbit: 541 x 617 km, 68.0° (Epoch: 29 November)

Event Time Altitude Azimuth Distance (km) Brightness Sun altitude
Exits shadow 10:33:15 18° 27° (NNE) 1,385 3.7 -29.2°
Drops below altitude 10° 10:34:19 10° 27° (NNE) 1,809 4.3 -29.0°
Sets 10:36:31 0° 27° (NNE) 2,708 5.3 -28.6°
